| time (UTC) | temp F | wind direction | speed MPH | gust MPH | rain 1hr in | rain 24hr in | rain mn in | humidity % | barometer mb |
| 20260510201020 | 72 | 240 | 4.0 | 8.0 | 0.00 | 0.50 | 0.00 | 63 | 1012.2 |
| 20260510200514 | 72 | 247 | 3.0 | 7.0 | 0.00 | 0.50 | 0.00 | 64 | 1012.1 |
| 20260510200010 | 72 | 238 | 4.0 | 8.0 | 0.00 | 0.50 | 0.00 | 62 | 1012.2 |
| 20260510195740 | 72 | 238 | 5.0 | 8.0 | 0.00 | 0.50 | 0.00 | 63 | 1012.4 |
| 20260510195002 | 73 | 248 | 4.0 | 8.0 | 0.00 | 0.50 | 0.00 | 63 | 1012.4 |
| 20260510194731 | 73 | 238 | 5.0 | 9.0 | 0.00 | 0.50 | 0.00 | 62 | 1012.6 |
| 20260510193956 | 73 | 250 | 6.0 | 9.0 | 0.00 | 0.50 | 0.00 | 63 | 1012.6 |
| 20260510193451 | 72 | 160 | 4.0 | 9.0 | 0.00 | 0.50 | 0.00 | 64 | 1012.7 |
| 20260510192947 | 73 | 238 | 5.0 | 9.0 | 0.00 | 0.50 | 0.00 | 65 | 1012.7 |
| 20260510192445 | 72 | 240 | 5.0 | 11.0 | 0.00 | 0.50 | 0.00 | 64 | 1012.7 |
| 20260510191936 | 72 | 276 | 5.0 | 11.0 | 0.00 | 0.50 | 0.00 | 64 | 1012.7 |
| 20260510191703 | 73 | 227 | 5.0 | 11.0 | 0.00 | 0.50 | 0.00 | 64 | 1012.7 |
| 20260510190926 | 73 | 248 | 5.0 | 11.0 | 0.00 | 0.50 | 0.00 | 64 | 1012.6 |
| 20260510190420 | 73 | 241 | 4.0 | 9.0 | 0.00 | 0.50 | 0.00 | 65 | 1012.7 |
| 20260510185916 | 73 | 241 | 4.0 | 12.0 | 0.00 | 0.50 | 0.00 | 66 | 1012.6 |
| 20260510185408 | 73 | 241 | 6.0 | 12.0 | 0.00 | 0.50 | 0.00 | 66 | 1012.7 |
| 20260510184906 | 72 | 226 | 4.0 | 12.0 | 0.00 | 0.50 | 0.00 | 66 | 1012.7 |
| 20260510184402 | 72 | 219 | 5.0 | 12.0 | 0.00 | 0.50 | 0.00 | 67 | 1012.7 |
| 20260510183859 | 72 | 241 | 5.0 | 10.0 | 0.00 | 0.50 | 0.00 | 67 | 1012.7 |
| 20260510183359 | 71 | 234 | 4.0 | 9.0 | 0.00 | 0.50 | 0.00 | 66 | 1012.8 |
| 20260510183125 | 72 | 248 | 4.0 | 8.0 | 0.00 | 0.50 | 0.00 | 65 | 1012.8 |
| 20260510182348 | 72 | 219 | 3.0 | 6.0 | 0.00 | 0.50 | 0.00 | 66 | 1012.8 |
| 20260510181841 | 73 | 193 | 2.0 | 6.0 | 0.00 | 0.50 | 0.00 | 67 | 1013.0 |
| 20260510181334 | 73 | 295 | 3.0 | 6.0 | 0.00 | 0.50 | 0.00 | 66 | 1013.0 |
| 20260510181104 | 73 | 249 | 3.0 | 6.0 | 0.00 | 0.50 | 0.00 | 65 | 1013.1 |
| 20260510180323 | 72 | 293 | 2.0 | 6.0 | 0.00 | 0.50 | 0.00 | 67 | 1013.0 |
| 20260510175826 | 71 | 251 | 3.0 | 6.0 | 0.00 | 0.50 | 0.00 | 65 | 1013.2 |
| 20260510175318 | 71 | 236 | 3.0 | 5.0 | 0.00 | 0.50 | 0.00 | 68 | 1013.3 |
| 20260510174813 | 71 | 231 | 2.0 | 6.0 | 0.00 | 0.50 | 0.00 | 66 | 1013.3 |
| 20260510174313 | 72 | 245 | 3.0 | 6.0 | 0.00 | 0.50 | 0.00 | 66 | 1013.3 |
| 20260510173807 | 72 | 276 | 4.0 | 9.0 | 0.00 | 0.50 | 0.00 | 65 | 1013.2 |
| 20260510173310 | 72 | 236 | 3.0 | 9.0 | 0.00 | 0.50 | 0.00 | 67 | 1013.3 |
| 20260510172803 | 72 | 176 | 2.0 | 6.0 | 0.00 | 0.50 | 0.00 | 67 | 1013.3 |
| 20260510172256 | 71 | 213 | 2.0 | 8.0 | 0.00 | 0.50 | 0.00 | 68 | 1013.4 |
| 20260510171753 | 71 | 236 | 4.0 | 9.0 | 0.00 | 0.50 | 0.00 | 69 | 1013.4 |
| 20260510171246 | 70 | 184 | 3.0 | 9.0 | 0.00 | 0.50 | 0.00 | 71 | 1013.4 |
| 20260510170741 | 68 | 207 | 2.0 | 6.0 | 0.00 | 0.50 | 0.00 | 73 | 1013.4 |
| 20260510170237 | 69 | 147 | 2.0 | 8.0 | 0.00 | 0.50 | 0.00 | 71 | 1013.5 |
| 20260510165959 | 69 | 190 | 5.0 | 8.0 | 0.00 | 0.50 | 0.00 | 74 | 1013.5 |
| 20260510165224 | 67 | 148 | 2.0 | 6.0 | 0.00 | 0.50 | 0.00 | 74 | 1013.6 |
| 20260510164718 | 66 | 135 | 1.0 | 6.0 | 0.00 | 0.50 | 0.00 | 74 | 1013.6 |
| 20260510164216 | 66 | 146 | 2.0 | 6.0 | 0.00 | 0.50 | 0.00 | 74 | 1013.7 |
| 20260510163714 | 66 | 157 | 1.0 | 4.0 | 0.00 | 0.50 | 0.00 | 74 | 1013.7 |
| 20260510163209 | 67 | 165 | 1.0 | 7.0 | 0.00 | 0.50 | 0.00 | 72 | 1013.7 |
| 20260510162655 | 68 | 182 | 3.0 | 7.0 | 0.00 | 0.50 | 0.00 | 74 | 1013.6 |
| 20260510162150 | 67 | 165 | 2.0 | 5.0 | 0.00 | 0.50 | 0.00 | 74 | 1013.7 |
| 20260510161649 | 67 | 232 | 2.0 | 5.0 | 0.00 | 0.50 | 0.00 | 74 | 1013.7 |
| 20260510161418 | 67 | 223 | 2.0 | 5.0 | 0.00 | 0.50 | 0.00 | 74 | 1013.7 |
| 20260510160639 | 67 | 221 | 2.0 | 6.0 | 0.00 | 0.50 | 0.00 | 74 | 1013.8 |
| 20260510160134 | 67 | 210 | 3.0 | 6.0 | 0.00 | 0.50 | 0.00 | 75 | 1013.8 |
| 20260510155635 | 67 | 252 | 2.0 | 6.0 | 0.00 | 0.50 | 0.00 | 75 | 1013.8 |
| 20260510155129 | 67 | 219 | 3.0 | 7.0 | 0.00 | 0.50 | 0.00 | 75 | 1013.8 |
| 20260510154856 | 66 | 242 | 3.0 | 7.0 | 0.00 | 0.50 | 0.00 | 75 | 1013.9 |
| 20260510154117 | 66 | 200 | 2.0 | 4.0 | 0.00 | 0.50 | 0.00 | 76 | 1014.0 |
| 20260510153612 | 65 | 226 | 3.0 | 4.0 | 0.00 | 0.50 | 0.00 | 79 | 1013.9 |
| 20260510153113 | 64 | 191 | 2.0 | 3.0 | 0.00 | 0.50 | 0.00 | 82 | 1014.0 |
| 20260510152845 | 62 | 202 | 1.0 | 4.0 | 0.00 | 0.50 | 0.00 | 82 | 1014.0 |
| 20260510152102 | 61 | 172 | 2.0 | 4.0 | 0.00 | 0.50 | 0.00 | 81 | 1014.1 |
| 20260510151555 | 61 | 121 | 2.0 | 5.0 | 0.00 | 0.50 | 0.00 | 82 | 1014.0 |
| 20260510151050 | 60 | 134 | 2.0 | 4.0 | 0.00 | 0.50 | 0.00 | 82 | 1014.1 |
| 20260510150546 | 60 | 157 | 1.0 | 4.0 | 0.00 | 0.50 | 0.00 | 82 | 1014.2 |
| 20260510150318 | 59 | 115 | 2.0 | 5.0 | 0.00 | 0.50 | 0.00 | 81 | 1014.2 |
| 20260510145528 | 60 | 131 | 3.0 | 5.0 | 0.00 | 0.50 | 0.00 | 80 | 1014.3 |
| 20260510145301 | 61 | 175 | 2.0 | 4.0 | 0.00 | 0.50 | 0.00 | 79 | 1014.2 |
| 20260510144755 | 62 | 173 | 1.0 | 4.0 | 0.00 | 0.50 | 0.00 | 78 | 1014.2 |
| 20260510144023 | 63 | 179 | 2.0 | 4.0 | 0.00 | 0.50 | 0.00 | 78 | 1014.3 |
| 20260510143518 | 63 | 138 | 1.0 | 6.0 | 0.00 | 0.50 | 0.00 | 78 | 1014.3 |
| 20260510143017 | 64 | 133 | 2.0 | 6.0 | 0.00 | 0.50 | 0.00 | 77 | 1014.3 |
| 20260510142512 | 65 | 162 | 1.0 | 8.0 | 0.00 | 0.50 | 0.00 | 79 | 1014.3 |
| 20260510142011 | 64 | 220 | 3.0 | 8.0 | 0.00 | 0.50 | 0.00 | 79 | 1014.3 |
| 20260510141506 | 64 | 197 | 1.0 | 4.0 | 0.00 | 0.50 | 0.00 | 80 | 1014.3 |
| 20260510141002 | 63 | 295 | 2.0 | 4.0 | 0.00 | 0.50 | 0.00 | 81 | 1014.4 |
| 20260510140458 | 63 | 245 | 2.0 | 4.0 | 0.00 | 0.50 | 0.00 | 81 | 1014.3 |
| 20260510135950 | 63 | 244 | 2.0 | 5.0 | 0.00 | 0.50 | 0.00 | 81 | 1014.1 |
| 20260510135444 | 62 | 234 | 3.0 | 6.0 | 0.00 | 0.50 | 0.00 | 82 | 1014.2 |
| 20260510135210 | 62 | 278 | 2.0 | 6.0 | 0.00 | 0.50 | 0.00 | 83 | 1014.2 |
| 20260510134434 | 62 | 312 | 2.0 | 5.0 | 0.00 | 0.50 | 0.00 | 84 | 1014.3 |
| 20260510133929 | 61 | 219 | 0.0 | 4.0 | 0.00 | 0.50 | 0.00 | 85 | 1014.2 |
| 20260510133416 | 60 | 209 | 2.0 | 4.0 | 0.00 | 0.50 | 0.00 | 86 | 1014.1 |
| 20260510132913 | 60 | 175 | 2.0 | 4.0 | 0.00 | 0.50 | 0.00 | 86 | 1014.0 |
| 20260510132411 | 60 | 247 | 2.0 | 7.0 | 0.00 | 0.50 | 0.00 | 86 | 1014.0 |
| 20260510132139 | 60 | 268 | 1.0 | 7.0 | 0.00 | 0.50 | 0.00 | 87 | 1014.0 |
| 20260510131400 | 59 | 285 | 1.0 | 4.0 | 0.00 | 0.50 | 0.00 | 88 | 1014.1 |
| 20260510130859 | 59 | 296 | 2.0 | 5.0 | 0.00 | 0.50 | 0.00 | 88 | 1014.1 |
| 20260510130347 | 59 | 307 | 2.0 | 5.0 | 0.00 | 0.50 | 0.00 | 89 | 1014.1 |
| 20260510125843 | 58 | 199 | 1.0 | 3.0 | 0.00 | 0.50 | 0.00 | 89 | 1014.0 |
| 20260510125337 | 58 | 199 | 1.0 | 5.0 | 0.00 | 0.50 | 0.00 | 90 | 1014.0 |
| 20260510124843 | 58 | 198 | 2.0 | 9.0 | 0.00 | 0.50 | 0.00 | 91 | 1013.7 |
| 20260510124836 | 58 | 186 | 2.0 | 6.0 | 0.00 | 0.50 | 0.00 | 90 | 1013.7 |
| 20260510123817 | 58 | 250 | 3.0 | 10.0 | 0.00 | 0.50 | 0.00 | 91 | 1013.6 |
| 20260510123313 | 58 | 252 | 5.0 | 10.0 | 0.00 | 0.50 | 0.00 | 91 | 1013.6 |
| 20260510122814 | 58 | 202 | 4.0 | 8.0 | 0.00 | 0.50 | 0.00 | 92 | 1013.4 |
| 20260510122309 | 57 | 195 | 2.0 | 8.0 | 0.00 | 0.51 | 0.00 | 92 | 1013.7 |
| 20260510121801 | 57 | 194 | 3.0 | 7.0 | 0.00 | 0.51 | 0.00 | 92 | 1013.7 |
| 20260510121256 | 57 | 210 | 3.0 | 9.0 | 0.00 | 0.51 | 0.00 | 92 | 1013.8 |
| 20260510120752 | 56 | 204 | 3.0 | 9.0 | 0.00 | 0.51 | 0.00 | 92 | 1013.7 |
| 20260510120246 | 56 | 193 | 3.0 | 8.0 | 0.00 | 0.51 | 0.00 | 92 | 1013.8 |
| 20260510115735 | 56 | 198 | 2.0 | 6.0 | 0.00 | 0.51 | 0.00 | 93 | 1013.9 |
| 20260510115728 | 56 | 179 | 3.0 | 6.0 | 0.00 | 0.51 | 0.00 | 93 | 1013.8 |
| 20260510114730 | 56 | 184 | 2.0 | 5.0 | 0.00 | 0.51 | 0.00 | 93 | 1013.8 |
| 20260510114223 | 55 | 195 | 2.0 | 5.0 | 0.00 | 0.51 | 0.00 | 93 | 1013.9 |
| 20260510113723 | 55 | 189 | 2.0 | 4.0 | 0.00 | 0.51 | 0.00 | 93 | 1014.0 |
| 20260510113448 | 55 | 179 | 2.0 | 7.0 | 0.00 | 0.51 | 0.00 | 93 | 1014.1 |
| 20260510112711 | 55 | 181 | 3.0 | 7.0 | 0.00 | 0.51 | 0.00 | 93 | 1014.0 |
| 20260510112438 | 55 | 190 | 1.0 | 3.0 | 0.00 | 0.51 | 0.00 | 93 | 1014.2 |
| 20260510111700 | 55 | 190 | 1.0 | 3.0 | 0.00 | 0.51 | 0.00 | 93 | 1014.1 |
| 20260510111156 | 55 | 189 | 1.0 | 3.0 | 0.00 | 0.51 | 0.00 | 93 | 1014.1 |
| 20260510110932 | 55 | 193 | 1.0 | 5.0 | 0.00 | 0.51 | 0.00 | 93 | 1014.0 |
| 20260510110143 | 55 | 209 | 1.0 | 5.0 | 0.00 | 0.51 | 0.00 | 93 | 1014.0 |
| 20260510105636 | 55 | 195 | 2.0 | 4.0 | 0.00 | 0.51 | 0.00 | 93 | 1014.0 |
| 20260510105135 | 54 | 198 | 1.0 | 4.0 | 0.00 | 0.51 | 0.00 | 93 | 1013.9 |
| 20260510104625 | 54 | 198 | 1.0 | 4.0 | 0.00 | 0.51 | 0.00 | 93 | 1014.1 |
| 20260510104127 | 54 | 217 | 0.0 | 3.0 | 0.00 | 0.51 | 0.00 | 93 | 1014.0 |
| 20260510103634 | 54 | 217 | 2.0 | 4.0 | 0.00 | 0.51 | 0.00 | 93 | 1013.9 |
| 20260510103626 | 54 | 219 | 1.0 | 4.0 | 0.00 | 0.51 | 0.00 | 93 | 1014.0 |
| 20260510102617 | 54 | 262 | 1.0 | 6.0 | 0.00 | 0.51 | 0.00 | 93 | 1013.9 |
| 20260510102110 | 54 | 259 | 1.0 | 6.0 | 0.00 | 0.51 | 0.00 | 93 | 1013.9 |
| 20260510101835 | 54 | 285 | 2.0 | 5.0 | 0.00 | 0.51 | 0.00 | 93 | 1013.9 |
| 20260510101106 | 54 | 233 | 1.0 | 3.0 | 0.00 | 0.51 | 0.00 | 93 | 1013.8 |
| 20260510100601 | 54 | 233 | 1.0 | 3.0 | 0.00 | 0.51 | 0.00 | 93 | 1013.7 |
| 20260510100053 | 54 | 233 | 1.0 | 3.0 | 0.00 | 0.51 | 0.00 | 93 | 1013.5 |
| 20260510095549 | 54 | 230 | 2.0 | 5.0 | 0.00 | 0.51 | 0.00 | 93 | 1013.4 |
| 20260510095052 | 54 | 229 | 2.0 | 5.0 | 0.00 | 0.51 | 0.00 | 93 | 1013.4 |
| 20260510094811 | 54 | 263 | 2.0 | 6.0 | 0.00 | 0.51 | 0.00 | 93 | 1013.3 |
| 20260510094033 | 54 | 200 | 2.0 | 6.0 | 0.00 | 0.51 | 0.00 | 92 | 1013.3 |
| 20260510093525 | 54 | 184 | 2.0 | 5.0 | 0.00 | 0.51 | 0.00 | 92 | 1013.3 |
| 20260510093020 | 54 | 184 | 1.0 | 5.0 | 0.00 | 0.51 | 0.00 | 92 | 1013.3 |
| 20260510092806 | 54 | 194 | 2.0 | 3.0 | 0.00 | 0.51 | 0.00 | 92 | 1013.2 |
| 20260510092245 | 54 | 299 | 1.0 | 3.0 | 0.00 | 0.51 | 0.00 | 92 | 1013.3 |
| 20260510091511 | 54 | 299 | 2.0 | 3.0 | 0.00 | 0.51 | 0.00 | 92 | 1013.3 |
| 20260510091003 | 54 | 299 | 2.0 | 4.0 | 0.00 | 0.51 | 0.00 | 92 | 1013.2 |
| 20260510090458 | 54 | 301 | 2.0 | 4.0 | 0.00 | 0.51 | 0.00 | 92 | 1013.2 |
| 20260510090223 | 54 | 269 | 1.0 | 3.0 | 0.00 | 0.51 | 0.00 | 92 | 1013.2 |
| 20260510085442 | 54 | 265 | 1.0 | 3.0 | 0.00 | 0.51 | 0.00 | 92 | 1013.2 |
| 20260510084936 | 54 | 265 | 1.0 | 4.0 | 0.00 | 0.51 | 0.00 | 93 | 1013.2 |
| 20260510084423 | 54 | 265 | 2.0 | 4.0 | 0.00 | 0.51 | 0.00 | 92 | 1013.3 |
| 20260510083911 | 54 | 303 | 1.0 | 3.0 | 0.00 | 0.51 | 0.00 | 92 | 1013.2 |
| 20260510083411 | 54 | 303 | 1.0 | 3.0 | 0.00 | 0.51 | 0.00 | 92 | 1013.3 |
| 20260510082905 | 54 | 304 | 1.0 | 3.0 | 0.00 | 0.51 | 0.00 | 92 | 1013.4 |
| 20260510082350 | 54 | 304 | 1.0 | 3.0 | 0.00 | 0.51 | 0.00 | 92 | 1013.3 |
| 20260510082125 | 54 | 292 | 1.0 | 3.0 | 0.00 | 0.51 | 0.00 | 92 | 1013.3 |
| 20260510081348 | 54 | 328 | 1.0 | 5.0 | 0.00 | 0.51 | 0.00 | 92 | 1013.2 |
| 20260510080848 | 54 | 240 | 1.0 | 5.0 | 0.00 | 0.51 | 0.00 | 92 | 1013.2 |
| 20260510080614 | 54 | 335 | 1.0 | 3.0 | 0.00 | 0.51 | 0.00 | 92 | 1013.1 |
| 20260510075842 | 54 | 338 | 2.0 | 3.0 | 0.00 | 0.51 | 0.00 | 92 | 1013.0 |
| 20260510075337 | 54 | 338 | 2.0 | 3.0 | 0.00 | 0.51 | 0.00 | 92 | 1012.9 |
| 20260510074838 | 55 | 339 | 1.0 | 3.0 | 0.00 | 0.51 | 0.00 | 92 | 1012.9 |
| 20260510074331 | 55 | 339 | 1.0 | 3.0 | 0.00 | 0.51 | 0.00 | 92 | 1012.9 |
| 20260510073827 | 54 | 342 | 1.0 | 3.0 | 0.00 | 0.51 | 0.00 | 92 | 1012.9 |
| 20260510073325 | 55 | 342 | 2.0 | 4.0 | 0.00 | 0.51 | 0.00 | 92 | 1012.7 |
| 20260510072828 | 54 | 342 | 1.0 | 4.0 | 0.00 | 0.51 | 0.00 | 92 | 1012.7 |
| 20260510072322 | 55 | 349 | 2.0 | 4.0 | 0.00 | 0.51 | 0.00 | 92 | 1012.8 |
| 20260510071814 | 54 | 355 | 2.0 | 3.0 | 0.00 | 0.51 | 0.00 | 92 | 1012.9 |
| 20260510071317 | 54 | 356 | 2.0 | 3.0 | 0.00 | 0.51 | 0.00 | 92 | 1012.8 |
| 20260510070803 | 54 | 359 | 2.0 | 3.0 | 0.00 | 0.51 | 0.00 | 92 | 1012.6 |
| 20260510070301 | 54 | 58 | 2.0 | 3.0 | 0.00 | 0.51 | 0.00 | 92 | 1012.6 |
| 20260510065757 | 54 | 250 | 1.0 | 3.0 | 0.00 | 0.51 | 0.00 | 92 | 1012.6 |
| 20260510065540 | 54 | 246 | 1.0 | 2.0 | 0.00 | 0.51 | 0.00 | 92 | 1012.6 |
| 20260510064746 | 54 | 250 | 1.0 | 2.0 | 0.00 | 0.51 | 0.00 | 92 | 1012.6 |
| 20260510064247 | 54 | 248 | 1.0 | 2.0 | 0.00 | 0.51 | 0.00 | 92 | 1012.6 |
| 20260510063740 | 54 | 248 | 1.0 | 5.0 | 0.00 | 0.51 | 0.00 | 92 | 1012.6 |
| 20260510063235 | 54 | 247 | 0.0 | 5.0 | 0.00 | 0.51 | 0.00 | 92 | 1012.6 |
| 20260510062728 | 54 | 247 | 2.0 | 4.0 | 0.00 | 0.51 | 0.00 | 92 | 1012.7 |
| 20260510062222 | 54 | 311 | 2.0 | 3.0 | 0.00 | 0.51 | 0.00 | 92 | 1012.6 |
| 20260510061718 | 54 | 243 | 1.0 | 3.0 | 0.00 | 0.51 | 0.00 | 92 | 1012.6 |
| 20260510061204 | 54 | 243 | 1.0 | 3.0 | 0.00 | 0.51 | 0.00 | 92 | 1012.7 |
| 20260510060700 | 54 | 243 | 2.0 | 3.0 | 0.00 | 0.51 | 0.00 | 92 | 1012.7 |
| 20260510060410 | 54 | 248 | 1.0 | 3.0 | 0.00 | 0.51 | 0.00 | 92 | 1012.7 |
| 20260510055908 | 53 | 248 | 1.0 | 3.0 | 0.00 | 0.51 | 0.00 | 92 | 1012.6 |
| 20260510055130 | 53 | 248 | 0.0 | 2.0 | 0.00 | 0.51 | 0.00 | 92 | 1012.6 |
| 20260510054854 | 53 | 248 | 1.0 | 2.0 | 0.00 | 0.51 | 0.00 | 92 | 1012.6 |
| 20260510054124 | 53 | 212 | 0.0 | 2.0 | 0.00 | 0.51 | 0.00 | 92 | 1012.6 |
| 20260510053620 | 53 | 233 | 0.0 | 1.0 | 0.00 | 0.51 | 0.00 | 92 | 1012.7 |
| 20260510053117 | 53 | 233 | 0.0 | 3.0 | 0.00 | 0.51 | 0.00 | 92 | 1012.7 |
| 20260510052844 | 53 | 233 | 1.0 | 3.0 | 0.00 | 0.51 | 0.00 | 92 | 1012.8 |
| 20260510052112 | 53 | 191 | 0.0 | 1.0 | 0.00 | 0.51 | 0.00 | 92 | 1012.7 |
| 20260510051610 | 53 | 193 | 0.0 | 1.0 | 0.00 | 0.51 | 0.00 | 92 | 1012.8 |
| 20260510051342 | 53 | 193 | 0.0 | 1.0 | 0.00 | 0.51 | 0.00 | 92 | 1012.7 |
| 20260510050604 | 53 | 193 | 0.0 | 3.0 | 0.00 | 0.51 | 0.00 | 92 | 1012.6 |
| 20260510050051 | 52 | 193 | 0.0 | 3.0 | 0.00 | 0.51 | 0.00 | 92 | 1012.6 |
| 20260510045545 | 52 | 192 | 1.0 | 3.0 | 0.00 | 0.51 | 0.00 | 92 | 1012.5 |
| 20260510045042 | 52 | 193 | 0.0 | 4.0 | 0.00 | 0.51 | 0.00 | 92 | 1012.6 |
| 20260510044541 | 52 | 177 | 2.0 | 5.0 | 0.00 | 0.51 | 0.00 | 91 | 1012.6 |
| 20260510044034 | 52 | 172 | 2.0 | 5.0 | 0.00 | 0.51 | 0.00 | 91 | 1012.6 |
| 20260510043535 | 51 | 162 | 2.0 | 4.0 | 0.00 | 0.51 | 0.00 | 91 | 1012.8 |
| 20260510043027 | 51 | 203 | 1.0 | 2.0 | 0.00 | 0.51 | 0.00 | 91 | 1012.9 |
| 20260510042524 | 51 | 203 | 1.0 | 3.0 | 0.00 | 0.51 | 0.00 | 91 | 1012.9 |
| 20260510042314 | 51 | 204 | 1.0 | 3.0 | 0.00 | 0.51 | 0.00 | 91 | 1013.1 |
| 20260510042310 | 51 | 204 | 0.0 | 3.0 | 0.00 | 0.51 | 0.00 | 91 | 1013.0 |
| 20260510041237 | 51 | 204 | 0.0 | 4.0 | 0.00 | 0.51 | 0.00 | 91 | 1013.1 |
| 20260510040501 | 51 | 205 | 1.0 | 4.0 | 0.00 | 0.51 | 0.00 | 91 | 1013.1 |
| 20260510035954 | 51 | 217 | 2.0 | 6.0 | 0.00 | 0.51 | 0.51 | 91 | 1013.1 |
| 20260510035451 | 51 | 216 | 2.0 | 6.0 | 0.00 | 0.51 | 0.51 | 91 | 1013.1 |
| 20260510034949 | 51 | 203 | 2.0 | 6.0 | 0.00 | 0.51 | 0.51 | 91 | 1013.1 |
| 20260510034444 | 51 | 188 | 2.0 | 5.0 | 0.01 | 0.51 | 0.51 | 91 | 1013.0 |
| 20260510033943 | 51 | 193 | 2.0 | 5.0 | 0.01 | 0.51 | 0.51 | 91 | 1013.0 |
| 20260510033440 | 51 | 192 | 1.0 | 5.0 | 0.01 | 0.51 | 0.51 | 91 | 1012.9 |
| 20260510032933 | 51 | 202 | 2.0 | 5.0 | 0.01 | 0.51 | 0.51 | 91 | 1012.9 |
| 20260510032707 | 52 | 212 | 1.0 | 4.0 | 0.01 | 0.51 | 0.51 | 90 | 1013.1 |
| 20260510031927 | 52 | 195 | 1.0 | 4.0 | 0.01 | 0.51 | 0.51 | 91 | 1013.1 |
| 20260510031656 | 52 | 219 | 0.0 | 3.0 | 0.01 | 0.51 | 0.51 | 91 | 1013.2 |
| 20260510030916 | 52 | 229 | 1.0 | 3.0 | 0.01 | 0.51 | 0.51 | 91 | 1013.4 |
| 20260510030410 | 52 | 232 | 1.0 | 3.0 | 0.01 | 0.51 | 0.51 | 91 | 1013.5 |
| 20260510025907 | 52 | 232 | 2.0 | 3.0 | 0.01 | 0.51 | 0.51 | 90 | 1013.6 |
| 20260510025406 | 52 | 207 | 1.0 | 4.0 | 0.01 | 0.51 | 0.51 | 91 | 1013.8 |
| 20260510024859 | 53 | 200 | 2.0 | 4.0 | 0.02 | 0.51 | 0.51 | 91 | 1014.1 |
| 20260510024401 | 53 | 206 | 2.0 | 4.0 | 0.01 | 0.50 | 0.50 | 91 | 1014.1 |
| 20260510023857 | 53 | 219 | 2.0 | 5.0 | 0.01 | 0.50 | 0.50 | 91 | 1014.2 |
| 20260510023623 | 53 | 174 | 2.0 | 7.0 | 0.01 | 0.50 | 0.50 | 91 | 1014.3 |
| 20260510023122 | 53 | 213 | 4.0 | 7.0 | 0.01 | 0.50 | 0.50 | 91 | 1014.3 |
| 20260510022344 | 53 | 186 | 3.0 | 9.0 | 0.01 | 0.50 | 0.50 | 91 | 1014.3 |
| 20260510021839 | 53 | 193 | 3.0 | 9.0 | 0.01 | 0.50 | 0.50 | 91 | 1014.2 |
| 20260510021333 | 53 | 197 | 3.0 | 7.0 | 0.01 | 0.50 | 0.50 | 91 | 1014.2 |
| 20260510020828 | 53 | 188 | 4.0 | 7.0 | 0.01 | 0.50 | 0.50 | 91 | 1014.3 |
| 20260510020322 | 53 | 174 | 2.0 | 7.0 | 0.01 | 0.50 | 0.50 | 90 | 1014.5 |
| 20260510015822 | 53 | 202 | 2.0 | 8.0 | 0.01 | 0.50 | 0.50 | 90 | 1014.5 |
| 20260510015318 | 53 | 197 | 2.0 | 8.0 | 0.00 | 0.49 | 0.50 | 90 | 1014.5 |
| 20260510015107 | 53 | 181 | 2.0 | 7.0 | 0.00 | 0.49 | 0.49 | 90 | 1014.6 |
| 20260510014313 | 53 | 205 | 3.0 | 7.0 | 0.00 | 0.49 | 0.49 | 91 | 1014.7 |
| 20260510014038 | 53 | 211 | 3.0 | 7.0 | 0.00 | 0.49 | 0.49 | 91 | 1014.8 |
| 20260510013303 | 53 | 181 | 3.0 | 6.0 | 0.00 | 0.49 | 0.49 | 91 | 1014.8 |
| 20260510012757 | 53 | 210 | 3.0 | 6.0 | 0.00 | 0.49 | 0.49 | 91 | 1014.8 |
| 20260510012242 | 53 | 200 | 2.0 | 6.0 | 0.00 | 0.49 | 0.49 | 91 | 1014.8 |
| 20260510011739 | 53 | 200 | 3.0 | 7.0 | 0.00 | 0.49 | 0.49 | 91 | 1014.9 |
| 20260510011238 | 53 | 197 | 3.0 | 8.0 | 0.00 | 0.49 | 0.49 | 91 | 1015.0 |
| 20260510010735 | 54 | 197 | 3.0 | 8.0 | 0.00 | 0.49 | 0.49 | 91 | 1015.0 |
| 20260510010226 | 54 | 192 | 2.0 | 7.0 | 0.00 | 0.49 | 0.49 | 91 | 1015.0 |
| 20260510005722 | 54 | 201 | 3.0 | 8.0 | 0.00 | 0.49 | 0.49 | 91 | 1014.9 |
| 20260510005215 | 54 | 181 | 2.0 | 8.0 | 0.00 | 0.49 | 0.49 | 91 | 1014.8 |
| 20260510004710 | 54 | 248 | 3.0 | 8.0 | 0.00 | 0.49 | 0.49 | 91 | 1014.7 |
| 20260510004205 | 54 | 240 | 3.0 | 5.0 | 0.01 | 0.49 | 0.49 | 91 | 1014.8 |
| 20260510003702 | 54 | 217 | 2.0 | 6.0 | 0.01 | 0.49 | 0.49 | 91 | 1014.8 |
| 20260510003201 | 54 | 230 | 3.0 | 6.0 | 0.01 | 0.49 | 0.49 | 91 | 1014.7 |
| 20260510002654 | 54 | 191 | 2.0 | 6.0 | 0.01 | 0.49 | 0.49 | 91 | 1014.5 |
| 20260510002150 | 54 | 245 | 2.0 | 5.0 | 0.01 | 0.49 | 0.49 | 91 | 1014.6 |
| 20260510001927 | 54 | 246 | 3.0 | 4.0 | 0.02 | 0.49 | 0.49 | 91 | 1014.5 |
| 20260510001146 | 54 | 200 | 2.0 | 6.0 | 0.04 | 0.49 | 0.49 | 91 | 1014.5 |
| 20260510000648 | 55 | 233 | 2.0 | 4.0 | 0.09 | 0.49 | 0.49 | 91 | 1014.7 |
| 20260510000642 | 55 | 210 | 3.0 | 6.0 | 0.05 | 0.49 | 0.49 | 91 | 1014.6 |
| 20260509235626 | 55 | 236 | 2.0 | 4.0 | 0.12 | 0.49 | 0.49 | 91 | 1014.5 |
| 20260509235128 | 55 | 237 | 2.0 | 4.0 | 0.14 | 0.49 | 0.49 | 91 | 1014.5 |
| 20260509234624 | 55 | 243 | 2.0 | 5.0 | 0.15 | 0.49 | 0.49 | 91 | 1014.5 |
| 20260509234342 | 55 | 242 | 2.0 | 5.0 | 0.16 | 0.48 | 0.48 | 91 | 1014.4 |
| 20260509233830 | 55 | 250 | 2.0 | 5.0 | 0.18 | 0.48 | 0.48 | 91 | 1014.5 |
| 20260509233054 | 55 | 243 | 2.0 | 6.0 | 0.19 | 0.48 | 0.48 | 91 | 1014.4 |
| 20260509232545 | 55 | 244 | 2.0 | 6.0 | 0.20 | 0.48 | 0.48 | 91 | 1014.5 |
| 20260509232313 | 55 | 213 | 3.0 | 5.0 | 0.23 | 0.48 | 0.48 | 90 | 1014.3 |
| 20260509231534 | 55 | 231 | 2.0 | 7.0 | 0.24 | 0.47 | 0.47 | 90 | 1014.4 |
| 20260509231031 | 55 | 246 | 3.0 | 7.0 | 0.23 | 0.45 | 0.45 | 90 | 1014.4 |
| 20260509230522 | 55 | 233 | 3.0 | 7.0 | 0.23 | 0.43 | 0.43 | 90 | 1014.4 |
| 20260509230019 | 55 | 214 | 3.0 | 9.0 | 0.20 | 0.39 | 0.40 | 90 | 1014.4 |
| 20260509225511 | 55 | 263 | 3.0 | 9.0 | 0.20 | 0.36 | 0.37 | 90 | 1014.3 |
| 20260509225245 | 55 | 250 | 4.0 | 8.0 | 0.19 | 0.35 | 0.35 | 90 | 1014.3 |
| 20260509224508 | 55 | 233 | 4.0 | 10.0 | 0.18 | 0.34 | 0.34 | 90 | 1014.3 |
| 20260509224007 | 55 | 192 | 4.0 | 10.0 | 0.16 | 0.32 | 0.32 | 90 | 1014.2 |
| 20260509223508 | 55 | 169 | 5.0 | 10.0 | 0.14 | 0.30 | 0.30 | 90 | 1014.1 |
| 20260509223002 | 56 | 202 | 4.0 | 10.0 | 0.13 | 0.29 | 0.29 | 89 | 1014.1 |
| 20260509222455 | 56 | 245 | 3.0 | 10.0 | 0.11 | 0.27 | 0.28 | 89 | 1014.1 |
| 20260509221950 | 56 | 207 | 3.0 | 10.0 | 0.10 | 0.25 | 0.26 | 89 | 1014.0 |
| 20260509221445 | 56 | 191 | 4.0 | 10.0 | 0.12 | 0.23 | 0.23 | 89 | 1014.0 |
| 20260509220939 | 56 | 186 | 3.0 | 8.0 | 0.14 | 0.22 | 0.22 | 89 | 1013.9 |
| 20260509220439 | 56 | 223 | 4.0 | 9.0 | 0.16 | 0.20 | 0.21 | 89 | 1014.0 |
| 20260509220204 | 56 | 248 | 3.0 | 9.0 | 0.15 | 0.18 | 0.18 | 89 | 1014.1 |
| 20260509215432 | 56 | 226 | 4.0 | 8.0 | 0.14 | 0.16 | 0.16 | 88 | 1014.1 |
| 20260509214928 | 56 | 234 | 3.0 | 7.0 | 0.15 | 0.16 | 0.16 | 88 | 1013.9 |
| 20260509214426 | 56 | 246 | 4.0 | 5.0 | 0.15 | 0.16 | 0.16 | 88 | 1013.9 |
| 20260509213921 | 56 | 154 | 2.0 | 5.0 | 0.15 | 0.16 | 0.16 | 88 | 1013.8 |
| 20260509213415 | 56 | 214 | 2.0 | 5.0 | 0.15 | 0.16 | 0.16 | 87 | 1013.8 |
| 20260509212911 | 56 | 247 | 2.0 | 6.0 | 0.15 | 0.16 | 0.16 | 87 | 1013.6 |
| 20260509212404 | 56 | 246 | 3.0 | 13.0 | 0.15 | 0.16 | 0.16 | 87 | 1013.5 |
| 20260509211900 | 56 | 250 | 6.0 | 13.0 | 0.14 | 0.15 | 0.15 | 86 | 1013.6 |
| 20260509211354 | 56 | 243 | 4.0 | 8.0 | 0.10 | 0.11 | 0.11 | 84 | 1013.7 |
| 20260509210851 | 56 | 250 | 3.0 | 7.0 | 0.05 | 0.06 | 0.06 | 83 | 1013.7 |
| 20260509210353 | 57 | 257 | 3.0 | 9.0 | 0.03 | 0.04 | 0.04 | 81 | 1013.5 |
| 20260509205841 | 58 | 249 | 3.0 | 11.0 | 0.02 | 0.03 | 0.03 | 79 | 1013.4 |
| 20260509205338 | 59 | 254 | 5.0 | 11.0 | 0.01 | 0.02 | 0.02 | 77 | 1013.5 |
| 20260509204830 | 60 | 288 | 4.0 | 17.0 | 0.00 | 0.01 | 0.01 | 76 | 1013.7 |
| 20260509204325 | 62 | 246 | 6.0 | 17.0 | 0.00 | 0.01 | 0.01 | 73 | 1013.5 |
| 20260509203821 | 62 | 245 | 4.0 | 14.0 | 0.00 | 0.01 | 0.01 | 73 | 1013.5 |
| 20260509203319 | 62 | 250 | 4.0 | 14.0 | 0.00 | 0.01 | 0.01 | 71 | 1013.3 |
| 20260509202816 | 63 | 220 | 4.0 | 9.0 | 0.00 | 0.01 | 0.01 | 71 | 1013.2 |
| 20260509202315 | 63 | 189 | 4.0 | 9.0 | 0.00 | 0.01 | 0.01 | 71 | 1013.2 |
| 20260509201810 | 63 | 190 | 3.0 | 8.0 | 0.00 | 0.01 | 0.01 | 70 | 1013.2 |